{"data":{"norad_id":60319,"epoch":"2026-05-25T03:06:52.413984Z","epoch_age_seconds":67031,"freshness":"FRESH","line1":"1 60319U 24133U   26145.12977331  .00000761  00000+0  37831-4 0  9992","line2":"2 60319  53.1609 302.0065 0001001  85.8265 274.2851 15.30196325103342","mean_motion":15.30196325,"eccentricity":0.0001001,"inclination_deg":53.1609,"raan_deg":302.0065,"arg_perigee_deg":85.8265,"mean_anomaly_deg":274.2851,"bstar":3.7831e-5,"rev_number":10334,"period_min":94.105571714793,"perigee_km":474.54002068832,"apogee_km":475.9120639694,"semimajor_km":6853.3630423289,"source":"CELESTRAK","updated_at":"2026-05-25T13:38:19.231777Z"}}